User: anonymous
Location: St. Malo Provincial Park
(49.3214°N, 96.9305°W)
Time: 10:32:27
(UTC-05:00)
Language:

Iridium 6 - Orbit

View from above orbital plane
View from above orbital plane
View from above satellite
View from above satellite

Ground track
Ground track

The orbit data is extracted from the following two-line orbital elements,

1 24794U 97020C   14212.11471252 -.00000001  00000-0 -75034-5 0  7194
2 24794 086.3943 038.6332 0002123 117.4483 242.6929 14.34213648902407
Epoch (UTC): 31 July 2014 02:45:11
Eccentricity: 0.0002123
inclination: 86.3943°
perigee height: 776 km
apogee height: 779 km
right ascension of ascending node: 38.6332°
argument of perigee: 117.4483°
revolutions per day: 14.34213648
mean anomaly at epoch: 242.6929°
orbit number at epoch: 90240

The dashed part of the orbit path shows where the satellite is in the earth's shadow,  

DLR